Location: Newark
(46.2167°N, 5.8664°E)
Time: 13:47:49
(UTC+00:00)

N. Korean satellite - Pass Details

Date: 26 October 2019
Orbit: 456 x 506 km, 97.2° (Epoch: 14 November)

Event Time Altitude Azimuth Distance (km) Brightness Sun altitude
Rises 05:21:33 0° 16° (NNE) 2,579 10.3 -8.7°
Reaches altitude 10° 05:23:39 10° 20° (NNE) 1,700 9.5 -8.4°
Maximum altitude 05:27:16 58° 100° (E) 587 7.4 -7.7°
Drops below altitude 10° 05:30:54 10° 181° (S) 1,706 9.5 -7.1°
Sets 05:33:00 0° 185° (S) 2,589 10.3 -6.8°
